Weather History for Reno, NV

Change the Weather History Date:

Saturday, February 15, 2014

  Actual Average Record
Temperature  
Mean Temperature 57 °F 40 °F  
Max Temperature 71 °F 51 °F 71 °F (2014)
Min Temperature 42 °F 29 °F -4 °F (1903)
Degree Days  
Heating Degree Days 8 25  
Month to date heating degree days 320 396  
Since 1 July heating degree days 3341 3333  
Cooling Degree Days 0 0  
Month to date cooling degree days 0 0  
Year to date cooling degree days 0 0  
Growing Degree Days 6 (Base 50)    
Moisture  
Dew Point 19 °F    
Average Humidity 33    
Maximum Humidity 56    
Minimum Humidity 9    
Precipitation  
Precipitation 0.01 in 0.04 in 0.85 in (1894)
Month to date precipitation 0.34 0.51  
Year to date precipitation 0.72 1.54  
Snow  
Snow 0.00 in 0.10 in 3.50 in (1927)
Month to date snowfall 1.1 2.5  
Since 1 July snowfall 6.2 16.5  
Snow Depth 0.00 in    
Sea Level Pressure  
Sea Level Pressure 29.87 in    
Wind  
Wind Speed 20 mph (South)    
Max Wind Speed 43 mph    
Max Gust Speed 53 mph    
Visibility 10 miles    
Events Rain    
T = Trace of Precipitation, MM = Missing Value Source: NWS Daily Summary

Daily Weather History Graph

Daily Weather History Graph

Search for Another Location

Airport:

Trip Planner

Search our weather history database for the weather conditions in past years. The results will help you decide how hot, cold, wet, or windy it might be!

Date:

Astronomy

Feb. 15, 2014 Rise Set
Actual Time 6:51 AM PST 5:35 PM PST
Civil Twilight 6:23 AM PST 6:03 PM PST
Nautical Twilight 5:52 AM PST 6:34 PM PST
Astronomical Twilight 5:20 AM PST 7:06 PM PST
Moon 6:40 PM PST (2/15) 6:52 AM PST (2/15)
Length of Visible Light 11h 39m
Length of Day
10h 44m
Full, 99% of the Moon is Illuminated
Feb 15
Full
Feb 22
Last Quarter
Mar 1
New
Mar 8
First Quarter
Mar 16
Full

Hourly Weather History & Observations

Time (PST) Temp. Windchill Dew Point Humidity Pressure Visibility Wind Dir Wind Speed Gust Speed Precip Events Conditions
12:55 AM 57.0 °F - 10.0 °F 15% 29.91 in 10.0 mi South 23.0 mph 28.8 mph N/A   Mostly Cloudy
1:55 AM 57.9 °F - 9.0 °F 14% 29.88 in 10.0 mi South 24.2 mph 29.9 mph N/A   Mostly Cloudy
2:55 AM 57.0 °F - 9.0 °F 15% 29.86 in 10.0 mi South 17.3 mph 27.6 mph N/A   Overcast
3:55 AM 55.9 °F - 10.0 °F 16% 29.87 in 10.0 mi South 15.0 mph - N/A   Mostly Cloudy
4:55 AM 57.0 °F - 9.0 °F 15% 29.88 in 10.0 mi SSW 12.7 mph - N/A   Mostly Cloudy
5:55 AM 57.0 °F - 8.1 °F 14% 29.88 in 10.0 mi SSW 9.2 mph - N/A   Overcast
6:55 AM 55.9 °F - 8.1 °F 15% 29.88 in 10.0 mi South 19.6 mph 24.2 mph N/A   Mostly Cloudy
7:55 AM 57.9 °F - 6.1 °F 13% 29.88 in 10.0 mi South 19.6 mph - N/A   Overcast
8:55 AM 60.1 °F - 3.9 °F 11% 29.87 in 10.0 mi South 18.4 mph 27.6 mph N/A   Overcast
9:55 AM 64.0 °F - 7.0 °F 11% 29.86 in 10.0 mi South 21.9 mph 35.7 mph N/A   Mostly Cloudy
10:55 AM 63.0 °F - 9.0 °F 12% 29.86 in 10.0 mi SSE 29.9 mph 43.7 mph N/A   Mostly Cloudy
11:55 AM 66.0 °F - 7.0 °F 10% 29.85 in 10.0 mi SSE 25.3 mph 35.7 mph N/A   Overcast
12:55 PM 69.1 °F - 18.0 °F 14% 29.81 in 10.0 mi West 21.9 mph 38.0 mph N/A   Mostly Cloudy
1:55 PM 68.0 °F - 19.0 °F 15% 29.78 in 10.0 mi SW 17.3 mph 34.5 mph N/A   Overcast
2:22 PM 68.0 °F - 19.9 °F 16% 29.91 in 10.0 mi SSW 15.0 mph 23.0 mph N/A   Mostly Cloudy
2:55 PM 63.0 °F - 18.0 °F 18% 29.84 in 10.0 mi WSW 19.6 mph 41.4 mph N/A   Overcast
3:55 PM 57.9 °F - 25.0 °F 28% 29.88 in 10.0 mi South 15.0 mph 21.9 mph N/A   Overcast
4:55 PM 52.0 °F - 26.1 °F 37% 29.89 in 10.0 mi Variable 5.8 mph 25.3 mph N/A   Mostly Cloudy
5:55 PM 48.0 °F - 33.1 °F 56% 29.87 in 10.0 mi SSE 35.7 mph 51.8 mph N/A   Mostly Cloudy
6:55 PM 48.9 °F - 33.1 °F 54% 29.88 in 10.0 mi SSE 26.5 mph 42.6 mph N/A   Overcast
7:55 PM 48.9 °F - 33.1 °F 54% 29.86 in 10.0 mi SSE 29.9 mph 42.6 mph N/A   Overcast
8:55 PM 48.9 °F - 30.0 °F 48% 29.83 in 10.0 mi SSE 26.5 mph 34.5 mph N/A   Mostly Cloudy
9:55 PM 46.0 °F 39.0 °F 30.9 °F 56% 29.84 in 10.0 mi North 17.3 mph 25.3 mph 0.00 in Rain Light Rain
10:28 PM 46.9 °F - 30.9 °F 54% 29.98 in 10.0 mi South 23.0 mph 32.2 mph 0.00 in   Mostly Cloudy
10:47 PM 44.1 °F 36.2 °F 36.0 °F 73% 29.97 in 10.0 mi NW 18.4 mph 23.0 mph 0.00 in   Mostly Cloudy
10:55 PM 43.0 °F 34.8 °F 34.0 °F 71% 29.90 in 10.0 mi WSW 18.4 mph 29.9 mph 0.00 in Rain Light Rain
11:43 PM 42.1 °F 34.9 °F 33.1 °F 70% 29.93 in 10.0 mi NNE 13.8 mph - 0.01 in   Overcast
11:55 PM 43.0 °F 36.4 °F 30.9 °F 62% 29.86 in 10.0 mi NE 12.7 mph 24.2 mph 0.01 in   Overcast